[[{"header":{"parameterUnit":"m.s-1","parameterCategory":1,"la1":30.2991,"la2":30.254,"lo1":-89.0895,"lo2":-89.0444,"dy":0.0017,"dx":0.0017,"nx":28,"ny":28,"refTime":"2025-04-23T09:00:00:Z","depth":0,"parameterNumber":2,"parameterNumberName":"U-component_of_WINDS"},"data":[0,0,0,0,0,0,0,0,0,0,0,0,0,0,0,0,0,0,0,0,0,0,0,0,0,0,0,0,0,0,0,0,0,0,0,0,0,0,0,0,0,0,0,0,0,0,0,0,0,0,0,0,0,0,0,0,0,0,-3.2113,-3.2113,0,-3.216,-3.216,-3.2161,-3.2134,-3.2132,-3.2131,-3.213,-3.2176,-3.2178,-3.2181,0,0,0,0,0,0,0,0,0,0,0,0,0,-3.2,-3.2002,-3.2113,-3.2113,-3.2114,-3.2159,-3.216,-3.2161,-3.2134,-3.2132,-3.2131,-3.2129,-3.2175,-3.2178,-3.2181,0,0,0,0,0,0,0,0,0,0,0,0,0,-3.2048,-3.2003,-3.2112,-3.2106,-3.2106,-3.2159,-3.216,-3.2161,-3.2134,-3.2132,-3.213,-3.2128,-3.2174,-3.2178,-3.2181,-3.2243,0,0,-3.2192,-3.2194,0,0,0,0,0,0,0,0,-3.2046,-3.2052,-3.2106,-3.2106,-3.2106,-3.2139,-3.2137,-3.2188,-3.2135,-3.2123,-3.213,-3.2127,-3.2165,-3.2169,-3.2182,-3.2245,-3.2247,-3.2193,-3.2195,-3.2197,-3.2198,0,0,0,0,0,0,0,-3.2042,-3.205,-3.2131,-3.2107,-3.2107,-3.2101,-3.2105,-3.2147,-3.2154,-3.2124,-3.2122,-3.2128,-3.2165,-3.2179,-3.2183,-3.2248,-3.2193,-3.2196,-3.2198,-3.22,-3.2368,-3.237,0,0,0,0,0,0,-3.204,-3.2048,-3.213,-3.2132,-3.2071,-3.2104,-3.211,-3.213,-3.2154,-3.2156,-3.213,-3.2127,-3.2173,-3.2179,-3.2185,-3.226,-3.2197,-3.22,-3.2202,-3.2365,-3.2368,-3.237,0,0,0,0,0,0,-3.2037,-3.2047,-3.2128,-3.209,-3.2099,-3.2109,-3.2132,-3.2132,-3.2146,-3.2158,-3.216,-3.2143,-3.2172,-3.2179,-3.223,-3.2261,-3.2202,-3.2205,-3.2363,-3.2366,-3.2369,-3.241,0,0,0,0,0,0,-3.2034,-3.2046,-3.2069,-3.209,-3.2102,-3.2172,-3.2134,-3.2135,-3.2153,-3.2149,-3.2171,-3.2173,-3.2171,-3.2224,-3.2233,-3.2265,-3.2208,-3.236,-3.2364,-3.2368,-3.2406,-3.2415,-3.2422,0,0,0,0,0,-3.203,-3.2078,-3.2071,-3.2081,-3.2131,-3.2173,-3.218,-3.2178,-3.2156,-3.2179,-3.2188,-3.2172,-3.2257,-3.223,-3.224,-3.2273,-3.2358,-3.2363,-3.2368,-3.2402,-3.2413,-3.2422,0,0,0,0,0,0,-3.2059,-3.2081,-3.2073,-3.2129,-3.215,-3.2169,-3.2198,-3.2188,-3.2215,-3.221,-3.2207,-3.2212,-3.2264,-3.2274,-3.2243,-3.2336,-3.2304,-3.2311,-3.2327,-3.2337,-3.2345,-3.234,-3.2211,0,0,0,0,0,-3.2072,-3.2105,-3.2122,-3.217,-3.2182,-3.2189,-3.2207,-3.2204,-3.2225,-3.2233,-3.2245,-3.2266,-3.2298,-3.2318,-3.2348,-3.2409,-3.2413,-3.2437,-3.2445,-3.2451,-3.2457,-3.2491,-3.2502,-3.2387,-3.2387,-3.2387,0,0,-3.2099,-3.2115,-3.2136,-3.2177,-3.2192,-3.2227,-3.2196,-3.2233,-3.2259,-3.2239,-3.2287,-3.2297,-3.232,-3.2377,-3.2402,-3.2386,-3.249,-3.2458,-3.2463,-3.2465,-3.2498,-3.2509,-3.2518,-3.2391,-3.239,-3.2389,0,0,-3.2165,-3.2181,-3.2223,-3.2241,-3.2266,-3.2271,-3.2281,-3.2303,-3.2309,-3.2358,-3.2345,-3.2376,-3.243,-3.2448,-3.2464,-3.2542,-3.2529,-3.2552,-3.2592,-3.2626,-3.2635,-3.2643,-3.2671,-3.2681,-3.2558,-3.2558,-3.2558,0,-3.2194,-3.2246,-3.2246,-3.2285,-3.2304,-3.229,-3.2334,-3.2351,-3.2384,-3.2398,-3.238,-3.245,-3.2464,-3.2525,-3.2545,-3.2559,-3.2571,-3.2548,-3.2634,-3.2642,-3.2649,-3.2676,-3.2687,-3.2561,-3.256,-3.256,-3.256,0,-3.2282,-3.2318,-3.235,-3.2384,-3.2407,-3.2448,-3.2455,-3.2478,-3.2475,-3.2482,-3.2533,-3.2551,-3.2585,-3.26,-3.2596,-3.2662,-3.2651,-3.2634,-3.2602,-3.2663,-3.2688,-3.2698,-3.2564,-3.2564,-3.2563,-3.2562,0,0,-3.2363,-3.24,-3.2411,-3.2428,-3.2457,-3.2485,-3.2527,-3.2562,-3.2582,-3.2607,-3.2642,-3.2691,-3.2676,-3.2695,-3.2693,-3.2723,-3.2785,-3.2703,-3.2703,-3.2717,-3.2859,-3.2871,-3.2883,-3.2778,-3.278,-3.2782,-3.2857,0,-3.243,-3.2503,-3.2507,-3.2573,-3.2608,-3.2598,-3.2634,-3.2657,-3.2666,-3.2697,-3.2707,-3.2741,-3.2719,-3.2731,-3.276,-3.2771,-3.2813,-3.2766,-3.281,-3.2812,-3.2803,-3.2896,-3.2907,-3.2978,-3.2867,-3.2869,-3.287,0,-3.2518,-3.2548,-3.2618,-3.2645,-3.266,-3.2692,-3.2726,-3.2756,-3.2782,-3.2787,-3.281,-3.2805,-3.2849,-3.2818,-3.2879,-3.2846,-3.2865,-3.2874,-3.2877,-3.2879,-3.2843,-3.29,-3.3,-3.301,-3.2885,-3.2884,-3.2883,0,-3.257,-3.2628,-3.2678,-3.2692,-3.2725,-3.2749,-3.2763,-3.2788,-3.2809,-3.2839,-3.2853,-3.2888,-3.2906,-3.2933,-3.2939,-3.2915,-3.3,-3.2969,-3.3005,-3.3005,-3.3021,-3.302,-3.3125,-3.3036,-3.3036,-3.3036,-3.3035,0,-3.2644,-3.2687,-3.2702,-3.2732,-3.2782,-3.2786,-3.2835,-3.2848,-3.2871,-3.2904,-3.2898,-3.293,-3.2936,-3.2969,-3.2974,-3.3024,-3.3033,-3.3038,-3.3038,-3.3038,-3.3037,-3.3048,-3.3043,-3.3038,-3.3038,-3.3037,-3.3037,0,-3.2708,-3.272,-3.2774,-3.2802,-3.2811,-3.2846,-3.287,-3.29,-3.291,-3.2953,-3.2963,-3.2979,-3.3019,-3.3028,-3.3074,-3.3078,-3.3137,-3.3133,-3.3128,-3.3127,-3.3163,-3.3159,-3.3278,-3.3294,-3.3196,-3.3197,-3.3198,0,-3.2754,-3.2787,-3.282,-3.2843,-3.286,-3.2896,-3.2919,-3.2926,-3.295,-3.2985,-3.3011,-3.305,-3.3082,-3.3146,-3.3161,-3.3197,-3.3194,-3.3233,-3.3199,-3.3198,-3.3194,-3.3191,-3.3195,-3.3239,-3.324,-3.3241,-3.3241,0,-3.2833,-3.2839,-3.2872,-3.2909,-3.2937,-3.2966,-3.2994,-3.3013,-3.3024,-3.3052,-3.3093,-3.3118,-3.3167,-3.3206,-3.3244,-3.3259,-3.3253,-3.3253,-3.3263,-3.3261,-3.3257,-3.326,-3.3145,-3.3249,-3.3248,-3.3248,-3.3247,-3.3247,-3.2889,-3.292,-3.2949,-3.2987,-3.301,-3.3037,-3.3067,-3.3082,-3.3117,-3.3158,-3.3161,-3.3206,-3.3234,-3.3284,-3.3302,-3.3338,-3.3326,-3.334,-3.3344,-3.3347,-3.335,-3.3253,-3.3345,-3.3345,-3.3344,-3.3344,-3.3344,0,-3.2968,-3.2988,-3.3023,-3.3064,-3.3095,-3.3088,-3.312,-3.3146,-3.3186,-3.3213,-3.3245,-3.3294,-3.3333,-3.3354,-3.3393,-3.3418,-3.3416,-3.3428,-3.3425,-3.3429,-3.3359,-3.3346,-3.3429,-3.3429,-3.3429,-3.3429,-3.3429,-3.3429,-3.3013,-3.3064,-3.3074,-3.3137,-3.3156,-3.3201,-3.3219,-3.3245,-3.3267,-3.3322,-3.3355,-3.3369,-3.3394,-3.3436,-3.3472,-3.3478,-3.3492,-3.3505,-3.3509,-3.3442,-3.3434,-3.3425,-3.3413,-3.3509,-3.3509,-3.3576,-3.3576,-3.3577]},{"header":{"parameterUnit":"m.s-1","parameterCategory":1,"la1":30.2991,"la2":30.254,"lo1":-89.0895,"lo2":-89.0444,"dy":0.0017,"dx":0.0017,"nx":28,"ny":28,"refTime":"2025-04-23T09:00:00:Z","depth":0,"parameterNumber":3,"parameterNumberName":"V-component_of_WINDS"},"data":[0,0,0,0,0,0,0,0,0,0,0,0,0,0,0,0,0,0,0,0,0,0,0,0,0,0,0,0,0,0,0,0,0,0,0,0,0,0,0,0,0,0,0,0,0,0,0,0,0,0,0,0,0,0,0,0,0,0,2.0686,2.0687,0,2.0748,2.0749,2.075,2.0821,2.0822,2.0823,2.0824,2.0881,2.0881,2.0882,0,0,0,0,0,0,0,0,0,0,0,0,0,2.0625,2.0625,2.0686,2.0687,2.0688,2.0748,2.0749,2.075,2.082,2.0822,2.0823,2.0824,2.088,2.0881,2.0882,0,0,0,0,0,0,0,0,0,0,0,0,0,2.0665,2.0626,2.0686,2.073,2.0735,2.0748,2.0749,2.075,2.082,2.0822,2.0823,2.0825,2.088,2.0881,2.0882,2.0854,0,0,2.0884,2.0884,0,0,0,0,0,0,0,0,2.0663,2.0668,2.0723,2.0727,2.0732,2.0779,2.0749,2.0785,2.082,2.0788,2.0824,2.0826,2.0845,2.0849,2.0857,2.0857,2.0859,2.0884,2.0885,2.0885,2.0885,0,0,0,0,0,0,0,2.066,2.0665,2.0711,2.0724,2.0729,2.0746,2.0754,2.0756,2.0806,2.079,2.0796,2.0803,2.0848,2.0856,2.0858,2.086,2.0884,2.0885,2.0885,2.0886,2.0846,2.0845,0,0,0,0,0,0,2.0651,2.0662,2.0709,2.0712,2.0701,2.0746,2.0754,2.0762,2.0806,2.0815,2.0801,2.0806,2.0854,2.0857,2.0861,2.0835,2.0885,2.0886,2.0886,2.0848,2.0846,2.0844,0,0,0,0,0,0,2.065,2.0655,2.0706,2.0689,2.0697,2.0745,2.0753,2.0762,2.0771,2.0815,2.0823,2.08,2.0855,2.086,2.0857,2.0838,2.0886,2.0887,2.0849,2.0847,2.0845,2.0781,0,0,0,0,0,0,2.0648,2.0654,2.0644,2.0688,2.0698,2.0702,2.0752,2.0762,2.0773,2.0779,2.0816,2.0824,2.0857,2.0855,2.0858,2.084,2.0887,2.0851,2.0848,2.0846,2.0785,2.0777,2.077,0,0,0,0,0,2.0645,2.0621,2.0643,2.0648,2.0687,2.0701,2.0706,2.0746,2.0771,2.0762,2.0791,2.0822,2.0839,2.0855,2.0858,2.084,2.0853,2.0849,2.0846,2.0788,2.0778,2.077,0,0,0,0,0,0,2.057,2.0627,2.0653,2.0642,2.0667,2.0713,2.0702,2.0733,2.0749,2.0754,2.0802,2.0809,2.0802,2.082,2.0836,2.0818,2.0851,2.0848,2.0806,2.0797,2.079,2.0786,2.0888,0,0,0,0,0,2.0552,2.056,2.061,2.0596,2.0607,2.0653,2.066,2.069,2.0715,2.0725,2.0754,2.0776,2.0787,2.0793,2.0805,2.0788,2.0799,2.0778,2.077,2.0763,2.076,2.0757,2.0749,2.0833,2.0833,2.0833,0,0,2.0515,2.0548,2.055,2.0582,2.0604,2.0611,2.066,2.0664,2.067,2.0725,2.0726,2.0748,2.0776,2.0768,2.0765,2.0783,2.074,2.0759,2.0754,2.0754,2.0753,2.0745,2.0738,2.0831,2.0831,2.0831,0,0,2.0453,2.0477,2.0471,2.0494,2.0528,2.0559,2.0558,2.06,2.0618,2.0621,2.0663,2.067,2.0687,2.0707,2.0719,2.0669,2.07,2.0671,2.0632,2.0628,2.0621,2.0616,2.0601,2.0594,2.0668,2.0668,2.0668,0,2.0402,2.0416,2.0463,2.0466,2.048,2.0534,2.0528,2.0547,2.0582,2.059,2.061,2.0636,2.0658,2.0658,2.0646,2.0653,2.0654,2.0667,2.0619,2.0613,2.0609,2.0595,2.0589,2.0664,2.0665,2.0665,2.0665,0,2.0354,2.0363,2.0353,2.0391,2.0403,2.0401,2.0448,2.0455,2.0484,2.0513,2.0517,2.0546,2.0568,2.0569,2.0596,2.0573,2.0584,2.061,2.0645,2.0597,2.0585,2.058,2.0659,2.0661,2.0662,2.0663,0,0,2.0243,2.031,2.0306,2.0326,2.037,2.0377,2.0379,2.0403,2.0409,2.0432,2.0436,2.0452,2.0479,2.0492,2.0522,2.0518,2.0481,2.0546,2.0548,2.0535,2.0462,2.0443,2.0436,2.0502,2.0502,2.0501,2.046,0,2.019,2.0199,2.0243,2.0239,2.0249,2.0303,2.0305,2.0332,2.036,2.0372,2.0402,2.0414,2.0447,2.0456,2.0455,2.0486,2.0468,2.0489,2.0507,2.0507,2.05,2.0429,2.0408,2.0368,2.0456,2.0455,2.0454,0,2.0128,2.0153,2.0151,2.02,2.0205,2.0206,2.0235,2.0245,2.0278,2.0299,2.0317,2.0352,2.0358,2.039,2.0399,2.0413,2.0423,2.044,2.0439,2.0443,2.0478,2.0433,2.0356,2.0351,2.0447,2.0447,2.0448,0,2.0052,2.0083,2.0088,2.0102,2.0158,2.0158,2.0181,2.0216,2.0229,2.0252,2.0262,2.0284,2.0297,2.0314,2.0355,2.0374,2.036,2.0395,2.0379,2.0378,2.0373,2.0373,2.0299,2.0377,2.0377,2.0377,2.0377,0,1.9989,1.9986,2.0055,2.0057,2.0057,2.0108,2.0105,2.0133,2.0164,2.0173,2.0219,2.0226,2.0279,2.0292,2.0324,2.0329,2.0333,2.0351,2.0359,2.0348,2.0346,2.0355,2.036,2.0375,2.0376,2.0376,2.0376,0,1.9903,1.9949,1.9958,2.0011,2.0025,2.0022,2.0068,2.0073,2.0105,2.0116,2.0121,2.0171,2.019,2.0233,2.0261,2.0283,2.028,2.0295,2.027,2.0276,2.0258,2.026,2.0189,2.0183,2.0262,2.0261,2.026,0,1.986,1.9861,1.9916,1.9927,1.9949,1.9965,1.998,2.0031,2.0045,2.0085,2.0085,2.0108,2.0129,2.0156,2.0195,2.0218,2.0235,2.0208,2.0238,2.0228,2.0237,2.0238,2.0239,2.0201,2.02,2.0199,2.0199,0,1.9782,1.9806,1.9827,1.9857,1.9875,1.99,1.9927,1.9933,1.9991,2.0004,2.0025,2.0042,2.0075,2.0097,2.0127,2.015,2.0184,2.0189,2.0187,2.0176,2.0163,2.0173,2.0254,2.0191,2.0191,2.0192,2.0192,2.0193,1.9718,1.9722,1.9764,1.9786,1.9814,1.984,1.9848,1.9884,1.9903,1.9936,1.9964,1.9984,2.0019,2.0064,2.0085,2.0101,2.0118,2.0114,2.0113,2.0112,2.0108,2.016,2.0106,2.0106,2.0107,2.0107,2.0107,0,1.9644,1.9674,1.9695,1.9735,1.9754,1.9787,1.982,1.9834,1.9851,1.9883,1.9905,1.9931,1.9955,1.9997,2.0024,2.0029,2.0045,2.0034,2.0035,2.0041,2.009,2.0091,2.0021,2.0021,2.0021,2.0021,2.0021,2.0021,1.9608,1.9618,1.9647,1.9672,1.9702,1.9724,1.9741,1.9766,1.9792,1.982,1.9842,1.987,1.9906,1.9938,1.9961,1.9973,1.9982,1.9966,1.9983,2.0028,2.0036,2.0044,2.0045,1.9967,1.9967,1.9933,1.9932,1.9932]}]]